Theta_e
322 322 322 322 322 322 324 325 326 325 325 325 325 324 324 323 323 321 318 316 314 313 313 309 309 314 316 316 318 318 316 318 321 321 323 324 322 325 324 324 324 322 322 322 322
322 322 323 323 322 322 324 324 325 325 325 324 323 323 322 321 320 319 315 313 313 312 310 310 318 318 316 319 319 318 315 320 321 320 322 322 322 322 322 324 323 321 320 320 320
323 323 324 324 323 324 324 324 324 324 323 322 322 322 320 319 316 318 312 311 311 312 311 317 317 318 321 321 321 319 316 318 321 321 320 319 321 320 320 319 321 320 319 319 319
323 324 324 325 324 324 324 323 323 323 323 321 321 321 317 314 317 317 317 314 313 312 317 319 319 319 320 319 323 320 320 321 320 320 319 318 319 319 320 318 318 318 318 319 319
324 324 324 324 324 326 324 324 323 323 322 322 320 317 312 310 315 318 315 314 313 308 313 318 318 319 318 319 319 319 320 321 320 320 319 319 318 318 318 318 318 317 318 319 319
326 325 325 325 325 325 325 324 324 322 321 321 317 312 305 310 315 313 312 313 312 310 316 317 317 317 318 318 317 318 319 320 319 319 319 318 317 318 317 317 317 318 319 318 318
326 326 326 324 324 324 325 324 323 322 320 319 313 305 303 311 315 312 312 313 310 312 314 316 317 317 318 316 319 319 318 316 318 319 318 318 316 315 317 317 317 318 318 317 316
315 313 315 317 319 323 323 323 322 320 318 314 308 302 303 313 311 312 312 312 312 312 313 315 316 316 316 316 316 318 317 316 315 316 316 316 314 314 317 317 317 317 317 316 315
313 311 312 312 313 314 316 318 318 317 314 306 305 307 313 313 312 312 311 312 312 312 313 313 314 315 316 313 313 315 314 314 315 316 314 313 315 315 317 318 318 317 316 316 314
315 313 310 311 311 312 313 311 308 309 304 303 303 308 311 313 312 311 311 310 312 313 313 313 315 313 312 312 314 315 316 313 313 315 314 314 314 315 318 318 318 316 316 314 313
312 313 310 310 310 311 311 309 310 311 308 311 312 311 312 311 311 311 311 310 311 312 312 314 313 312 314 314 315 316 315 314 315 316 314 315 313 314 316 316 316 318 316 314 313
310 310 310 311 310 311 310 310 309 310 310 311 313 312 311 311 312 313 312 312 311 311 313 312 314 314 315 315 315 316 317 316 316 316 315 313 313 313 314 316 317 318 316 315 313
310 309 310 308 307 307 307 309 308 308 308 309 311 312 314 311 311 311 313 313 311 311 312 312 313 315 315 315 316 316 317 316 317 316 314 315 314 314 315 316 317 318 317 316 314
309 309 308 308 307 307 306 307 308 306 307 311 312 311 310 313 311 310 311 314 312 312 312 313 313 313 316 315 316 315 317 318 317 315 314 315 314 314 315 315 316 316 316 315 313
310 308 308 307 307 306 307 305 307 307 314 314 314 311 310 311 311 310 311 314 313 315 314 315 313 313 313 316 316 316 317 316 316 315 316 316 313 312 315 318 316 314 314 314 313
310 309 308 308 306 306 306 306 306 310 313 313 312 311 311 310 310 311 310 311 315 315 315 314 315 313 314 315 315 316 316 316 315 313 313 314 313 313 313 315 317 315 314 313 311
306 308 309 307 307 306 306 306 306 311 311 313 314 312 311 311 310 311 310 308 314 315 315 314 314 315 314 315 314 314 315 314 314 313 314 314 315 314 314 317 317 315 314 313 312
304 305 307 308 307 305 306 305 307 309 310 312 313 314 312 313 311 311 311 309 311 312 313 312 313 313 313 314 315 315 316 316 318 316 315 315 316 316 317 318 317 316 313 312 310
303 304 305 307 306 305 304 306 307 307 309 310 310 310 314 313 314 312 310 311 309 312 313 313 313 313 313 314 315 316 316 314 316 316 313 314 315 317 317 317 316 314 311 310 309
297 300 303 305 306 304 305 307 307 306 307 307 308 310 311 313 313 313 312 311 312 309 311 313 313 313 314 314 314 314 315 317 316 318 316 315 314 314 316 315 316 313 310 309 309
296 298 299 302 305 303 305 306 306 306 306 308 308 309 308 310 312 314 313 312 312 313 311 311 312 314 315 314 314 313 314 316 316 315 315 314 312 319 316 316 315 313 311 309 308
297 291 299 302 304 300 304 306 305 305 305 307 308 309 309 310 311 310 315 313 315 314 313 311 312 313 313 314 314 313 314 314 317 316 313 312 313 318 316 316 315 314 312 310 309
297 297 297 300 299 304 303 304 305 306 305 307 308 309 309 310 310 311 314 314 312 313 311 312 313 314 315 315 313 314 313 313 315 314 315 313 314 318 317 316 315 314 313 310 309
296 295 298 299 300 301 303 305 305 304 304 305 307 308 309 309 308 311 312 312 310 311 310 311 316 313 314 313 314 314 314 313 316 315 314 314 315 314 316 316 315 314 311 310 309
295 294 297 292 299 300 301 303 306 305 305 305 308 308 308 309 308 310 310 308 308 308 308 310 313 311 312 311 312 314 315 315 317 317 317 316 317 315 314 316 315 314 314 313 310
295 295 297 299 299 300 301 303 304 306 305 306 308 308 308 309 309 310 308 308 309 309 308 308 311 308 310 309 309 310 312 314 314 315 315 315 314 313 313 314 315 315 314 314 308
294 295 296 296 299 300 300 301 306 306 306 306 307 308 308 307 307 307 307 307 307 308 308 309 308 309 309 309 309 309 309 309 313 313 313 314 313 312 311 311 312 314 314 311 309
Wind_Speed
17 17 16 17 17 17 16 16 16 18 19 20 22 24 25 27 27 25 28 12 16 18 19 18 6 5 4 13 8 15 3 3 6 8 4 7 8 11 10 10 15 15 24 17 11
19 19 18 18 18 18 18 18 18 18 20 22 23 24 25 26 27 19 9 9 14 19 17 8 9 13 12 11 10 5 4 4 2 4 2 3 15 14 5 6 16 26 19 15 11
22 21 20 20 20 20 19 19 19 19 21 22 23 23 22 22 22 3 9 10 15 6 5 3 6 11 11 16 16 7 6 5 2 6 11 4 8 10 6 2 12 18 19 15 11
24 23 23 23 22 21 22 22 21 20 21 23 24 24 20 16 5 8 15 17 15 7 1 5 7 11 5 5 17 5 11 8 9 5 4 5 5 3 8 8 13 16 16 16 15
27 25 24 25 25 27 25 23 23 21 22 24 23 21 19 9 21 17 17 18 14 9 6 13 18 13 7 10 12 5 4 14 7 12 7 5 5 2 2 11 14 14 13 17 17
32 29 27 30 28 27 27 25 25 23 23 23 22 19 16 10 2 7 15 14 11 8 7 9 9 16 11 9 4 9 5 9 3 7 7 7 7 5 6 11 14 17 19 15 11
32 32 32 30 30 30 30 25 26 23 21 21 21 19 16 32 16 13 8 13 9 7 10 12 14 11 10 8 11 13 3 7 12 11 4 5 4 8 13 21 16 24 21 17 12
9 11 6 9 19 29 28 24 24 21 19 19 18 15 14 23 16 18 19 15 18 9 15 15 9 8 8 13 12 3 4 4 7 14 7 11 7 10 23 21 16 28 24 20 13
10 14 11 12 12 16 13 17 18 18 17 15 14 10 16 10 14 12 17 15 13 12 11 8 9 7 8 3 5 5 4 8 12 16 8 6 6 6 29 22 20 29 26 21 15
27 20 9 6 9 9 12 11 10 10 13 11 13 8 18 22 8 8 7 16 14 11 10 12 4 3 4 5 7 6 8 7 9 3 8 8 9 6 26 25 24 30 30 27 18
17 21 8 9 9 4 9 8 4 3 5 13 8 13 9 6 8 9 8 11 14 15 7 14 4 9 19 14 8 9 11 7 6 8 9 14 9 9 15 17 18 28 31 27 21
9 10 12 12 13 12 7 4 4 5 13 20 27 34 32 21 11 13 12 13 14 13 10 6 16 17 12 11 14 17 18 12 9 4 5 10 11 9 7 9 23 29 31 29 24
11 10 10 10 11 13 14 13 5 9 7 14 30 33 40 34 24 20 22 22 9 11 13 16 8 18 16 16 18 16 17 10 9 7 2 5 4 6 7 9 20 30 29 25 23
13 14 13 11 9 11 15 11 3 5 3 7 7 10 24 29 13 36 26 16 7 15 15 13 20 23 18 19 15 12 5 6 5 5 8 2 7 6 6 15 11 25 33 31 28
18 15 16 15 6 7 6 16 6 7 3 3 4 3 1 23 8 21 42 30 16 11 11 9 12 16 22 8 17 9 2 1 1 3 2 1 6 4 5 6 14 19 29 25 22
15 13 19 17 17 5 8 18 11 2 8 7 8 5 7 29 14 5 22 28 16 12 15 13 21 9 21 12 11 3 3 4 4 3 5 6 6 8 9 17 15 19 26 32 29
11 11 20 19 23 12 14 21 3 5 6 8 8 9 11 12 21 12 5 19 13 9 17 14 21 21 10 5 6 7 7 1 2 1 8 12 11 19 8 8 20 21 29 34 30
12 17 21 31 21 19 24 2 7 12 17 8 5 13 13 12 15 18 11 17 22 12 3 13 11 17 10 13 6 10 11 6 7 5 4 12 7 6 4 13 34 34 36 35 28
8 14 17 28 27 27 17 8 9 7 6 7 17 15 17 15 9 17 23 23 18 26 14 9 14 8 21 6 11 5 14 9 4 1 2 4 2 3 7 12 23 28 32 33 29
7 7 20 15 28 31 8 10 7 13 9 7 6 5 10 18 18 15 14 18 23 18 21 4 5 12 12 12 19 10 4 6 4 5 8 5 6 5 7 8 14 16 23 29 30
4 3 6 19 25 17 7 8 12 24 15 3 7 9 7 11 12 20 15 13 21 18 14 23 10 6 8 21 23 13 14 5 7 7 5 2 5 4 12 13 14 15 26 35 31
2 1 3 10 14 4 8 5 21 20 18 8 4 8 8 13 14 12 16 16 19 10 19 23 10 15 18 6 16 16 21 13 6 10 5 4 6 6 14 14 18 20 28 31 27
3 5 7 9 4 8 3 17 12 7 19 9 5 4 7 9 7 7 2 8 23 9 7 8 10 5 11 6 8 17 17 16 11 5 14 5 5 6 11 13 15 13 27 33 29
2 2 3 14 17 8 10 11 20 36 20 23 7 13 7 10 12 4 6 10 13 14 23 19 5 20 14 2 3 12 13 8 4 7 9 9 2 8 1 12 12 16 22 28 27
8 5 5 3 7 14 14 8 16 21 23 18 6 13 8 5 11 4 4 5 4 7 8 7 0 10 4 10 9 7 9 6 2 3 5 4 5 5 7 10 22 26 25 24 31
7 4 5 7 17 12 11 9 24 19 18 23 11 11 12 11 12 3 5 3 2 1 3 1 3 5 6 7 7 4 10 11 8 9 7 9 14 8 17 19 23 27 38 35 36
15 18 7 8 4 6 12 15 10 16 18 23 20 12 10 8 7 9 8 9 4 1 3 0 1 3 5 10 12 4 10 11 11 12 8 10 12 11 13 17 18 29 26 37 42
Wind_Direction
265 271 272 277 284 289 289 289 296 304 312 314 316 320 321 320 320 323 311 294 293 294 293 302 296 340 296 262 268 281 44 297 290 344 152 111 109 100 101 122 80 103 112 113 111
261 265 269 277 281 283 286 292 297 304 309 312 315 318 320 322 323 326 343 329 297 280 280 264 305 307 249 264 261 159 151 250 95 11 22 73 95 98 89 141 121 108 107 111 117
261 264 264 269 276 280 282 289 296 303 310 311 314 319 321 326 326 333 14 8 5 327 211 264 320 308 298 266 261 220 207 266 55 47 10 9 99 112 107 42 103 111 115 113 130
259 261 263 266 269 276 278 286 291 299 306 310 312 314 318 324 309 317 317 316 311 356 358 329 284 270 284 252 268 252 249 267 155 103 17 2 3 63 100 109 117 113 113 126 110
257 259 262 266 269 271 269 277 286 295 303 305 310 312 317 301 269 290 294 295 294 284 289 301 301 274 261 281 298 211 234 275 241 144 153 300 312 327 328 127 130 122 133 126 114
257 254 257 258 261 267 264 275 279 288 299 302 303 305 305 270 336 304 293 297 280 254 254 284 291 306 296 298 319 316 5 328 229 194 191 199 240 220 222 184 144 139 135 133 134
252 237 243 238 255 260 258 266 274 283 293 298 299 301 284 267 273 224 245 282 256 236 269 257 302 287 308 314 322 326 353 324 286 263 209 161 305 238 231 162 154 136 136 130 119
121 23 1 282 270 255 251 258 270 278 285 289 291 292 269 292 267 240 244 245 275 237 251 242 288 286 280 289 318 321 345 279 255 231 206 149 260 249 176 157 171 139 137 131 119
311 6 339 352 342 355 318 276 269 268 276 279 285 290 272 296 261 267 223 235 238 239 240 255 273 255 276 222 311 239 227 239 267 232 158 137 238 113 153 163 185 140 143 137 131
283 299 323 335 337 346 341 332 303 289 278 276 253 277 259 261 286 242 216 222 225 226 243 238 236 229 227 183 208 219 218 244 246 238 125 176 237 189 166 178 194 144 144 139 138
273 277 293 307 294 282 335 329 340 344 202 219 227 222 275 281 245 216 207 206 212 230 210 194 181 212 222 221 229 252 259 270 273 199 149 189 211 237 188 196 183 150 144 141 135
247 234 240 236 242 228 219 234 126 329 290 260 262 253 251 245 282 251 200 199 202 226 194 257 225 222 238 239 225 239 257 266 282 154 140 216 222 222 229 249 186 160 144 143 141
232 239 240 233 228 234 216 217 170 276 274 276 251 243 240 238 248 237 202 204 202 217 211 218 234 217 227 233 242 234 235 247 235 293 229 160 233 218 242 215 149 151 153 148 151
228 230 222 228 235 241 241 204 114 174 306 270 225 259 223 221 253 223 226 197 225 213 219 251 235 253 232 233 234 246 223 258 265 275 265 116 279 247 230 227 138 145 146 143 139
232 215 220 216 184 223 206 174 221 167 308 273 199 184 267 188 150 208 217 209 214 205 192 216 200 223 240 234 226 242 213 102 302 304 306 156 294 204 196 167 169 152 149 153 162
222 224 223 215 216 203 182 170 156 134 231 260 147 200 155 199 226 331 193 211 230 249 260 245 257 230 235 236 221 266 95 68 33 67 271 160 210 250 207 222 167 155 151 152 155
264 249 227 220 215 171 156 149 160 211 194 222 196 180 207 189 217 222 224 200 200 194 234 248 251 256 245 239 222 178 113 34 326 285 241 184 218 241 245 226 171 164 154 164 170
243 248 260 227 212 189 179 171 203 219 216 283 254 181 194 202 210 210 223 233 217 228 174 216 255 222 220 207 199 201 171 174 195 197 242 214 240 243 210 159 156 160 156 163 170
253 245 240 235 203 185 176 202 203 219 224 275 256 265 215 221 212 201 215 232 217 208 200 193 233 189 213 171 182 210 210 194 311 168 82 219 164 47 76 97 129 138 147 159 169
268 245 235 233 206 198 226 220 243 238 280 356 336 318 273 212 207 209 199 231 238 224 213 253 299 221 218 189 211 195 153 184 212 216 232 216 220 214 158 134 135 142 151 159 170
324 280 274 214 213 208 229 212 240 245 259 318 339 303 303 298 284 218 207 234 214 224 207 227 252 281 237 207 203 200 222 207 168 210 184 204 249 200 173 163 154 161 166 172 177
145 1 191 182 197 213 218 227 233 253 249 280 328 308 274 302 302 289 244 216 10 306 206 217 214 247 250 264 191 196 216 205 185 220 210 175 251 139 156 166 165 169 173 180 181
221 245 246 204 226 245 247 227 250 284 232 235 226 231 336 325 312 319 112 9 15 22 24 321 208 221 240 244 199 201 208 214 201 141 218 146 255 167 168 174 170 160 176 176 180
177 295 221 207 237 244 247 239 232 245 255 265 240 245 264 308 290 315 6 16 356 10 10 346 274 215 222 290 145 200 214 209 176 206 225 224 267 283 62 119 92 85 148 168 183
191 227 239 215 224 231 237 241 247 233 226 232 226 241 213 199 294 209 37 355 326 359 11 338 309 341 359 21 48 52 275 298 212 212 195 255 275 269 285 175 183 192 184 202 199
191 191 239 263 257 239 245 244 236 251 222 221 207 217 219 236 230 96 152 194 213 47 107 310 330 8 328 322 37 340 296 273 288 278 242 247 261 241 272 276 202 202 194 203 186
232 241 267 259 292 239 221 236 238 233 242 228 232 215 227 205 227 165 160 162 230 291 338 15 306 56 290 338 344 246 225 253 241 243 247 239 246 248 252 252 239 217 196 181 184